Portada
METAR-TAF:

METAR-TAF

Aeropuertos :

Kinloss, Escocia

latitud: 57-39N, longitud: 003-34W, altitud: 7 m

Observación

El informe se hizo hace 37 minutos, a las 20:20 UTC
Viento 5 kt del este-noreste
Temperatura 12°C
Humedad 88%
Presión 1007 hPa
Visibilidad 10 km o más

METAR: EGQK 152020Z AUTO 06005KT 9999 FEW033/// 12/10 Q1007

Hora: 21:57 (20:57 UTC)


TAF: falta

Observaciones y pronósticos meteorológicos de más de 4000 aeropuertos (mensajes METAR y TAF).

Los puntos amarillos y rojos representan las estaciones disponibles.

Ponga el ratón en el punto deseado para ver el nombre de la estación.

Haga clic para ver las observaciones y los pronósticos meteorológicos.

Para cambiar el mapa : haga clic en los botones verdes con una cruz de color negro para hacer un zoom, en el botón verde con un guión para alejar o en las flechas verdes para mapas adyacentes.


METAR-TAF: